User: anonymous   Login
Location: The D'Auria's Ocala Star Observatory
(29.0276°N, 82.1742°W)
Time: 04:57:58
(UTC-05:00)
Language:

Abrixas rocket - Orbit

View from above orbital plane
View from above orbital plane
View from above satellite
View from above satellite

Ground track
Ground track

The orbit data is extracted from the following two-line orbital elements,

1 25723U 99022C   17017.81669403  .00003985  00000-0  72289-4 0  9991
2 25723  48.4162 247.8976 0009829  29.7593 330.3908 15.51919873983120
Epoch (UTC): 17 January 2017 19:36:02
Eccentricity: 0.0009829
inclination: 48.4162°
perigee height: 404 km
apogee height: 418 km
right ascension of ascending node: 247.8976°
argument of perigee: 29.7593°
revolutions per day: 15.51919873
mean anomaly at epoch: 330.3908°
orbit number at epoch: 98312

The dashed part of the orbit path shows where the satellite is in the earth's shadow,  

DLR